This is the latest recevied weather packets stored in our database for station/object KM4CNW. If no packets are shown the sender has not sent any weather packets the latest 10 day(s).
| Time | Temp. | Humidity | Pressure | Rain* | Wind** | Luminosity | Snow |
|---|---|---|---|---|---|---|---|
| 1777941574 | 18.33° C | 44% | 1008.1 hPa | 0 mm | - | 0 W/m² | - |
| 1777941271 | 18.33° C | 43% | 1008.1 hPa | 0 mm | - | 0 W/m² | - |
| 1777940967 | 18.89° C | 42% | 1008 hPa | 0 mm | - | 0 W/m² | - |
| 1777940663 | 19.44° C | 40% | 1008 hPa | 0 mm | - | 0 W/m² | - |
| 1777940361 | 20° C | 40% | 1008.1 hPa | 0 mm | - | 1 W/m² | - |
| 1777940059 | 20° C | 39% | 1008.1 hPa | 0 mm | - | 1 W/m² | - |
| 1777939756 | 20.56° C | 38% | 1008 hPa | 0 mm | - | 3 W/m² | - |
| 1777939454 | 21.67° C | 34% | 1007.8 hPa | 0 mm | - | 5 W/m² | - |
| 1777939150 | 22.22° C | 33% | 1008 hPa | 0 mm | - | 7 W/m² | - |
| 1777938848 | 22.22° C | 31% | 1007.8 hPa | 0 mm | - | 10 W/m² | - |
| 1777938543 | 22.78° C | 29% | 1007.7 hPa | 0 mm | - | 13 W/m² | - |
| 1777938241 | 22.78° C | 29% | 1007.8 hPa | 0 mm | - | 16 W/m² | - |
| 1777937938 | 23.33° C | 27% | 1007.7 hPa | 0 mm | - | 19 W/m² | - |
| 1777937633 | 23.33° C | 27% | 1007.4 hPa | 0 mm | - | 23 W/m² | - |
| 1777937330 | 23.33° C | 27% | 1007.5 hPa | 0 mm | - | 25 W/m² | - |
| 1777937028 | 23.89° C | 27% | 1007.5 hPa | 0 mm | - | 28 W/m² | - |
| 1777936724 | 23.89° C | 28% | 1007.6 hPa | 0 mm | - | 31 W/m² | - |
| 1777936421 | 23.89° C | 27% | 1007.5 hPa | 0 mm | - | 33 W/m² | - |
| 1777936117 | 23.89° C | 26% | 1007.5 hPa | 0 mm | - | 37 W/m² | - |
| 1777935815 | 24.44° C | 27% | 1007.4 hPa | 0 mm | - | 37 W/m² | - |
| 1777935513 | 24.44° C | 26% | 1007.5 hPa | 0 mm | - | 36 W/m² | - |
| 1777935209 | 24.44° C | 25% | 1007.4 hPa | 0 mm | - | 38 W/m² | - |
| 1777934907 | 25° C | 25% | 1007.5 hPa | 0 mm | - | 42 W/m² | - |
| 1777934604 | 25.56° C | 25% | 1007.5 hPa | 0 mm | - | 123 W/m² | - |
| 1777934301 | 25.56° C | 26% | 1007.5 hPa | 0 mm | - | 151 W/m² | - |
* Rain latest hour (hover to see other rain measurements)
** Current wind speed in m/s (hover to see current wind gust speed)